owner,sensor,date,latitude,longitude,vertical_datum,sea_water_temperature,qcFlag 
WAVCIS,ioos:station:WAVCIS:CSI16:2,2009-09-01T21:00:00Z,29.4012,-89.0355,10.0,29.035,11111222 
WAVCIS,ioos:station:WAVCIS:CSI16:2,2009-09-01T21:15:00Z,29.4012,-89.0355,10.0,29.032,11111222 
WAVCIS,ioos:station:WAVCIS:CSI16:2,2009-09-01T21:30:00Z,29.4012,-89.0355,10.0,29.017,11111222 
WAVCIS,ioos:station:WAVCIS:CSI16:2,2009-09-01T21:45:00Z,29.4012,-89.0355,10.0,29.017,11111222 
WAVCIS,ioos:station:WAVCIS:CSI16:2,2009-09-01T22:00:00Z,29.4012,-89.0355,10.0,29.095,11111222 
WAVCIS,ioos:station:WAVCIS:CSI16:2,2009-09-01T22:15:00Z,29.4012,-89.0355,10.0,28.984,11111222 
WAVCIS,ioos:station:WAVCIS:CSI16:2,2009-09-01T22:30:00Z,29.4012,-89.0355,10.0,29.101,11111222 
WAVCIS,ioos:station:WAVCIS:CSI16:2,2009-09-01T22:45:00Z,29.4012,-89.0355,10.0,29.055,11111222 
WAVCIS,ioos:station:WAVCIS:CSI16:2,2009-09-01T23:00:00Z,29.4012,-89.0355,10.0,29.046,11111222 
WAVCIS,ioos:station:WAVCIS:CSI16:2,2009-09-01T23:15:00Z,29.4012,-89.0355,10.0,29.038,11111222 
WAVCIS,ioos:station:WAVCIS:CSI16:2,2009-09-01T23:30:00Z,29.4012,-89.0355,10.0,29.036,11111222 
WAVCIS,ioos:station:WAVCIS:CSI16:2,2009-09-01T23:45:00Z,29.4012,-89.0355,10.0,29.032,11111222 
WAVCIS,ioos:station:WAVCIS:CSI16:2,2009-09-02T00:00:00Z,29.4012,-89.0355,10.0,29.008,11111222 
WAVCIS,ioos:station:WAVCIS:CSI16:2,2009-09-02T00:15:00Z,29.4012,-89.0355,10.0,28.977,11111222 
WAVCIS,ioos:station:WAVCIS:CSI16:2,2009-09-02T00:30:00Z,29.4012,-89.0355,10.0,28.956,11111222 
WAVCIS,ioos:station:WAVCIS:CSI16:2,2009-09-02T00:45:00Z,29.4012,-89.0355,10.0,28.944,11111222 
WAVCIS,ioos:station:WAVCIS:CSI16:2,2009-09-02T01:00:00Z,29.4012,-89.0355,10.0,28.941,11111222 
WAVCIS,ioos:station:WAVCIS:CSI16:2,2009-09-02T01:15:00Z,29.4012,-89.0355,10.0,28.924,11111222 
WAVCIS,ioos:station:WAVCIS:CSI16:2,2009-09-02T01:30:00Z,29.4012,-89.0355,10.0,28.916,11111222 
WAVCIS,ioos:station:WAVCIS:CSI16:2,2009-09-02T01:45:00Z,29.4012,-89.0355,10.0,28.92,11111222 
WAVCIS,ioos:station:WAVCIS:CSI16:2,2009-09-02T02:00:00Z,29.4012,-89.0355,10.0,28.932,11111222 
WAVCIS,ioos:station:WAVCIS:CSI16:2,2009-09-02T02:15:00Z,29.4012,-89.0355,10.0,28.931,11111222 
WAVCIS,ioos:station:WAVCIS:CSI16:2,2009-09-02T02:30:00Z,29.4012,-89.0355,10.0,28.886,11111222 
WAVCIS,ioos:station:WAVCIS:CSI16:2,2009-09-02T02:45:00Z,29.4012,-89.0355,10.0,28.835,11111222 
WAVCIS,ioos:station:WAVCIS:CSI16:2,2009-09-02T03:00:00Z,29.4012,-89.0355,10.0,28.809,11111222 
WAVCIS,ioos:station:WAVCIS:CSI16:2,2009-09-02T03:15:00Z,29.4012,-89.0355,10.0,28.839,11111222 
WAVCIS,ioos:station:WAVCIS:CSI16:2,2009-09-02T03:30:00Z,29.4012,-89.0355,10.0,28.853,11111222 
WAVCIS,ioos:station:WAVCIS:CSI16:2,2009-09-02T03:45:00Z,29.4012,-89.0355,10.0,28.9,11111222 
WAVCIS,ioos:station:WAVCIS:CSI16:2,2009-09-02T04:00:00Z,29.4012,-89.0355,10.0,28.919,11111222 
WAVCIS,ioos:station:WAVCIS:CSI16:2,2009-09-02T04:15:00Z,29.4012,-89.0355,10.0,28.961,11111222 
WAVCIS,ioos:station:WAVCIS:CSI16:2,2009-09-02T04:30:00Z,29.4012,-89.0355,10.0,28.916,11111222 
WAVCIS,ioos:station:WAVCIS:CSI16:2,2009-09-02T04:45:00Z,29.4012,-89.0355,10.0,28.93,11111222 
WAVCIS,ioos:station:WAVCIS:CSI16:2,2009-09-02T05:00:00Z,29.4012,-89.0355,10.0,28.979,11111222 
WAVCIS,ioos:station:WAVCIS:CSI16:2,2009-09-02T05:15:00Z,29.4012,-89.0355,10.0,29.018,11111222 
WAVCIS,ioos:station:WAVCIS:CSI16:2,2009-09-02T05:30:00Z,29.4012,-89.0355,10.0,29.013,11111222 
WAVCIS,ioos:station:WAVCIS:CSI16:2,2009-09-02T05:45:00Z,29.4012,-89.0355,10.0,29.019,11111222 
WAVCIS,ioos:station:WAVCIS:CSI16:2,2009-09-02T06:00:00Z,29.4012,-89.0355,10.0,29.034,11111222 
WAVCIS,ioos:station:WAVCIS:CSI16:2,2009-09-02T06:15:00Z,29.4012,-89.0355,10.0,29.013,11111222 
WAVCIS,ioos:station:WAVCIS:CSI16:2,2009-09-02T06:30:00Z,29.4012,-89.0355,10.0,29.019,11111222 
WAVCIS,ioos:station:WAVCIS:CSI16:2,2009-09-02T06:45:00Z,29.4012,-89.0355,10.0,29.032,11111222 
WAVCIS,ioos:station:WAVCIS:CSI16:2,2009-09-02T07:00:00Z,29.4012,-89.0355,10.0,29.031,11111222 
WAVCIS,ioos:station:WAVCIS:CSI16:2,2009-09-02T07:15:00Z,29.4012,-89.0355,10.0,29.047,11111222 
WAVCIS,ioos:station:WAVCIS:CSI16:2,2009-09-02T07:30:00Z,29.4012,-89.0355,10.0,29.051,11111222 
WAVCIS,ioos:station:WAVCIS:CSI16:2,2009-09-02T07:45:00Z,29.4012,-89.0355,10.0,29.034,11111222 
WAVCIS,ioos:station:WAVCIS:CSI16:2,2009-09-02T08:00:00Z,29.4012,-89.0355,10.0,29.004,11111222 
WAVCIS,ioos:station:WAVCIS:CSI16:2,2009-09-02T08:15:00Z,29.4012,-89.0355,10.0,28.983,11111222 
WAVCIS,ioos:station:WAVCIS:CSI16:2,2009-09-02T08:30:00Z,29.4012,-89.0355,10.0,29.001,11111222 
WAVCIS,ioos:station:WAVCIS:CSI16:2,2009-09-02T08:45:00Z,29.4012,-89.0355,10.0,28.969,11111222 
WAVCIS,ioos:station:WAVCIS:CSI16:2,2009-09-02T09:00:00Z,29.4012,-89.0355,10.0,28.98,11111222 
WAVCIS,ioos:station:WAVCIS:CSI16:2,2009-09-02T09:15:00Z,29.4012,-89.0355,10.0,28.975,11111222 
WAVCIS,ioos:station:WAVCIS:CSI16:2,2009-09-02T09:30:00Z,29.4012,-89.0355,10.0,29.013,11111222 
WAVCIS,ioos:station:WAVCIS:CSI16:2,2009-09-02T09:45:00Z,29.4012,-89.0355,10.0,29.025,11111222 
WAVCIS,ioos:station:WAVCIS:CSI16:2,2009-09-02T10:00:00Z,29.4012,-89.0355,10.0,28.958,11111222 
WAVCIS,ioos:station:WAVCIS:CSI16:2,2009-09-02T10:15:00Z,29.4012,-89.0355,10.0,29.035,11111222 
WAVCIS,ioos:station:WAVCIS:CSI16:2,2009-09-02T10:30:00Z,29.4012,-89.0355,10.0,29.169,11111222 
WAVCIS,ioos:station:WAVCIS:CSI16:2,2009-09-02T10:45:00Z,29.4012,-89.0355,10.0,29.19,11111222 
WAVCIS,ioos:station:WAVCIS:CSI16:2,2009-09-02T11:00:00Z,29.4012,-89.0355,10.0,29.041,11111222 
WAVCIS,ioos:station:WAVCIS:CSI16:2,2009-09-02T11:15:00Z,29.4012,-89.0355,10.0,29.158,11111222 
WAVCIS,ioos:station:WAVCIS:CSI16:2,2009-09-02T11:30:00Z,29.4012,-89.0355,10.0,29.204,11111222 
WAVCIS,ioos:station:WAVCIS:CSI16:2,2009-09-02T11:45:00Z,29.4012,-89.0355,10.0,29.215,11111222 
WAVCIS,ioos:station:WAVCIS:CSI16:2,2009-09-02T12:00:00Z,29.4012,-89.0355,10.0,29.115,11111222 
WAVCIS,ioos:station:WAVCIS:CSI16:2,2009-09-02T12:15:00Z,29.4012,-89.0355,10.0,29.195,11111222 
WAVCIS,ioos:station:WAVCIS:CSI16:2,2009-09-02T12:30:00Z,29.4012,-89.0355,10.0,29.198,11111222 
WAVCIS,ioos:station:WAVCIS:CSI16:2,2009-09-02T12:45:00Z,29.4012,-89.0355,10.0,29.179,11111222 
WAVCIS,ioos:station:WAVCIS:CSI16:2,2009-09-02T13:00:00Z,29.4012,-89.0355,10.0,29.195,11111222 
WAVCIS,ioos:station:WAVCIS:CSI16:2,2009-09-02T13:15:00Z,29.4012,-89.0355,10.0,29.194,11111222 
WAVCIS,ioos:station:WAVCIS:CSI16:2,2009-09-02T13:30:00Z,29.4012,-89.0355,10.0,29.183,11111222 
WAVCIS,ioos:station:WAVCIS:CSI16:2,2009-09-02T13:45:00Z,29.4012,-89.0355,10.0,29.143,11111222 
WAVCIS,ioos:station:WAVCIS:CSI16:2,2009-09-02T14:00:00Z,29.4012,-89.0355,10.0,29.145,11111222 
WAVCIS,ioos:station:WAVCIS:CSI16:2,2009-09-02T14:15:00Z,29.4012,-89.0355,10.0,29.149,11111222 
WAVCIS,ioos:station:WAVCIS:CSI16:2,2009-09-02T14:30:00Z,29.4012,-89.0355,10.0,29.104,11111222 
WAVCIS,ioos:station:WAVCIS:CSI16:2,2009-09-02T14:45:00Z,29.4012,-89.0355,10.0,29.068,11111222 
WAVCIS,ioos:station:WAVCIS:CSI16:2,2009-09-02T15:00:00Z,29.4012,-89.0355,10.0,29.05,11111222 
WAVCIS,ioos:station:WAVCIS:CSI16:2,2009-09-02T15:15:00Z,29.4012,-89.0355,10.0,29.051,11111222 
WAVCIS,ioos:station:WAVCIS:CSI16:2,2009-09-02T15:30:00Z,29.4012,-89.0355,10.0,29.045,11111222 
WAVCIS,ioos:station:WAVCIS:CSI16:2,2009-09-02T15:45:00Z,29.4012,-89.0355,10.0,29.043,11111222 
WAVCIS,ioos:station:WAVCIS:CSI16:2,2009-09-02T16:00:00Z,29.4012,-89.0355,10.0,29.03,11111222 
WAVCIS,ioos:station:WAVCIS:CSI16:2,2009-09-02T16:15:00Z,29.4012,-89.0355,10.0,28.98,11111222 
WAVCIS,ioos:station:WAVCIS:CSI16:2,2009-09-02T16:30:00Z,29.4012,-89.0355,10.0,28.89,11111222 
WAVCIS,ioos:station:WAVCIS:CSI16:2,2009-09-02T16:45:00Z,29.4012,-89.0355,10.0,28.859,11111222 
WAVCIS,ioos:station:WAVCIS:CSI16:2,2009-09-02T17:00:00Z,29.4012,-89.0355,10.0,28.837,11111222 
WAVCIS,ioos:station:WAVCIS:CSI16:2,2009-09-02T17:15:00Z,29.4012,-89.0355,10.0,28.846,11111222 
WAVCIS,ioos:station:WAVCIS:CSI16:2,2009-09-02T17:30:00Z,29.4012,-89.0355,10.0,28.825,11111222 
WAVCIS,ioos:station:WAVCIS:CSI16:2,2009-09-02T17:45:00Z,29.4012,-89.0355,10.0,28.82,11111222 
WAVCIS,ioos:station:WAVCIS:CSI16:2,2009-09-02T18:00:00Z,29.4012,-89.0355,10.0,28.816,11111222 
WAVCIS,ioos:station:WAVCIS:CSI16:2,2009-09-02T18:15:00Z,29.4012,-89.0355,10.0,28.815,11111222 
WAVCIS,ioos:station:WAVCIS:CSI16:2,2009-09-02T18:30:00Z,29.4012,-89.0355,10.0,28.804,11111222 
WAVCIS,ioos:station:WAVCIS:CSI16:2,2009-09-02T18:45:00Z,29.4012,-89.0355,10.0,28.798,11111222 
WAVCIS,ioos:station:WAVCIS:CSI16:2,2009-09-02T19:00:00Z,29.4012,-89.0355,10.0,28.789,11111222 
WAVCIS,ioos:station:WAVCIS:CSI16:2,2009-09-02T19:15:00Z,29.4012,-89.0355,10.0,28.775,11111222 
WAVCIS,ioos:station:WAVCIS:CSI16:2,2009-09-02T19:30:00Z,29.4012,-89.0355,10.0,28.78,11111222 
WAVCIS,ioos:station:WAVCIS:CSI16:2,2009-09-02T19:45:00Z,29.4012,-89.0355,10.0,28.775,11111222 
WAVCIS,ioos:station:WAVCIS:CSI16:2,2009-09-02T20:00:00Z,29.4012,-89.0355,10.0,28.776,11111222 
WAVCIS,ioos:station:WAVCIS:CSI16:2,2009-09-02T20:15:00Z,29.4012,-89.0355,10.0,28.79,11111222 
WAVCIS,ioos:station:WAVCIS:CSI16:2,2009-09-02T20:30:00Z,29.4012,-89.0355,10.0,28.801,11111222 
WAVCIS,ioos:station:WAVCIS:CSI16:2,2009-09-02T20:45:00Z,29.4012,-89.0355,10.0,28.841,11111222 
WAVCIS,ioos:station:WAVCIS:CSI16:2,2009-09-02T21:00:00Z,29.4012,-89.0355,10.0,28.89,11111222 
WAVCIS,ioos:station:WAVCIS:CSI16:2,2009-09-02T21:15:00Z,29.4012,-89.0355,10.0,28.899,11111222 
WAVCIS,ioos:station:WAVCIS:CSI16:2,2009-09-02T21:30:00Z,29.4012,-89.0355,10.0,28.914,11111222 
WAVCIS,ioos:station:WAVCIS:CSI16:2,2009-09-02T21:45:00Z,29.4012,-89.0355,10.0,28.878,11111222 
WAVCIS,ioos:station:WAVCIS:CSI16:2,2009-09-02T22:00:00Z,29.4012,-89.0355,10.0,28.893,11111222 
WAVCIS,ioos:station:WAVCIS:CSI16:2,2009-09-02T22:15:00Z,29.4012,-89.0355,10.0,28.905,11111222 
WAVCIS,ioos:station:WAVCIS:CSI16:2,2009-09-02T22:30:00Z,29.4012,-89.0355,10.0,28.906,11111222 
WAVCIS,ioos:station:WAVCIS:CSI16:2,2009-09-02T22:45:00Z,29.4012,-89.0355,10.0,28.917,11111222 
WAVCIS,ioos:station:WAVCIS:CSI16:2,2009-09-02T23:00:00Z,29.4012,-89.0355,10.0,28.924,11111222 
WAVCIS,ioos:station:WAVCIS:CSI16:2,2009-09-02T23:15:00Z,29.4012,-89.0355,10.0,28.943,11111222 
WAVCIS,ioos:station:WAVCIS:CSI16:2,2009-09-02T23:30:00Z,29.4012,-89.0355,10.0,28.977,11111222 
WAVCIS,ioos:station:WAVCIS:CSI16:2,2009-09-02T23:45:00Z,29.4012,-89.0355,10.0,29.004,11111222 
WAVCIS,ioos:station:WAVCIS:CSI16:2,2009-09-03T00:00:00Z,29.4012,-89.0355,10.0,29.022,11111222 
WAVCIS,ioos:station:WAVCIS:CSI16:2,2009-09-03T00:15:00Z,29.4012,-89.0355,10.0,29.038,11111222 
WAVCIS,ioos:station:WAVCIS:CSI16:2,2009-09-03T00:30:00Z,29.4012,-89.0355,10.0,29.002,11111222 
WAVCIS,ioos:station:WAVCIS:CSI16:2,2009-09-03T00:45:00Z,29.4012,-89.0355,10.0,29.002,11111222 
WAVCIS,ioos:station:WAVCIS:CSI16:2,2009-09-03T01:00:00Z,29.4012,-89.0355,10.0,28.989,11111222 
WAVCIS,ioos:station:WAVCIS:CSI16:2,2009-09-03T01:15:00Z,29.4012,-89.0355,10.0,28.993,11111222 
WAVCIS,ioos:station:WAVCIS:CSI16:2,2009-09-03T01:30:00Z,29.4012,-89.0355,10.0,28.987,11111222 
WAVCIS,ioos:station:WAVCIS:CSI16:2,2009-09-03T01:45:00Z,29.4012,-89.0355,10.0,28.996,11111222 
WAVCIS,ioos:station:WAVCIS:CSI16:2,2009-09-03T02:00:00Z,29.4012,-89.0355,10.0,28.999,11111222 
WAVCIS,ioos:station:WAVCIS:CSI16:2,2009-09-03T02:15:00Z,29.4012,-89.0355,10.0,28.999,11111222 
WAVCIS,ioos:station:WAVCIS:CSI16:2,2009-09-03T02:30:00Z,29.4012,-89.0355,10.0,29.004,11111222 
WAVCIS,ioos:station:WAVCIS:CSI16:2,2009-09-03T02:45:00Z,29.4012,-89.0355,10.0,29.008,11111222 
WAVCIS,ioos:station:WAVCIS:CSI16:2,2009-09-03T03:00:00Z,29.4012,-89.0355,10.0,29.014,11111222 
WAVCIS,ioos:station:WAVCIS:CSI16:2,2009-09-03T03:15:00Z,29.4012,-89.0355,10.0,29.009,11111222 
WAVCIS,ioos:station:WAVCIS:CSI16:2,2009-09-03T03:30:00Z,29.4012,-89.0355,10.0,29.001,11111222 
WAVCIS,ioos:station:WAVCIS:CSI16:2,2009-09-03T03:45:00Z,29.4012,-89.0355,10.0,28.987,11111222 
WAVCIS,ioos:station:WAVCIS:CSI16:2,2009-09-03T04:00:00Z,29.4012,-89.0355,10.0,28.975,11111222 
WAVCIS,ioos:station:WAVCIS:CSI16:2,2009-09-03T04:15:00Z,29.4012,-89.0355,10.0,28.945,11111222 
WAVCIS,ioos:station:WAVCIS:CSI16:2,2009-09-03T04:30:00Z,29.4012,-89.0355,10.0,28.919,11111222 
WAVCIS,ioos:station:WAVCIS:CSI16:2,2009-09-03T04:45:00Z,29.4012,-89.0355,10.0,28.883,11111222 
WAVCIS,ioos:station:WAVCIS:CSI16:2,2009-09-03T05:00:00Z,29.4012,-89.0355,10.0,28.835,11111222 
WAVCIS,ioos:station:WAVCIS:CSI16:2,2009-09-03T05:15:00Z,29.4012,-89.0355,10.0,28.83,11111222 
WAVCIS,ioos:station:WAVCIS:CSI16:2,2009-09-03T05:30:00Z,29.4012,-89.0355,10.0,28.849,11111222 
WAVCIS,ioos:station:WAVCIS:CSI16:2,2009-09-03T05:45:00Z,29.4012,-89.0355,10.0,28.835,11111222 
WAVCIS,ioos:station:WAVCIS:CSI16:2,2009-09-03T06:00:00Z,29.4012,-89.0355,10.0,28.833,11111222 
WAVCIS,ioos:station:WAVCIS:CSI16:2,2009-09-03T06:15:00Z,29.4012,-89.0355,10.0,28.819,11111222 
WAVCIS,ioos:station:WAVCIS:CSI16:2,2009-09-03T06:30:00Z,29.4012,-89.0355,10.0,28.813,11111222 
WAVCIS,ioos:station:WAVCIS:CSI16:2,2009-09-03T06:45:00Z,29.4012,-89.0355,10.0,28.803,11111222 
WAVCIS,ioos:station:WAVCIS:CSI16:2,2009-09-03T07:00:00Z,29.4012,-89.0355,10.0,28.795,11111222 
WAVCIS,ioos:station:WAVCIS:CSI16:2,2009-09-03T07:15:00Z,29.4012,-89.0355,10.0,28.802,11111222 
WAVCIS,ioos:station:WAVCIS:CSI16:2,2009-09-03T07:30:00Z,29.4012,-89.0355,10.0,28.816,11111222 
WAVCIS,ioos:station:WAVCIS:CSI16:2,2009-09-03T07:45:00Z,29.4012,-89.0355,10.0,28.821,11111222 
WAVCIS,ioos:station:WAVCIS:CSI16:2,2009-09-03T08:00:00Z,29.4012,-89.0355,10.0,28.823,11111222 
WAVCIS,ioos:station:WAVCIS:CSI16:2,2009-09-03T08:15:00Z,29.4012,-89.0355,10.0,28.822,11111222 
WAVCIS,ioos:station:WAVCIS:CSI16:2,2009-09-03T08:30:00Z,29.4012,-89.0355,10.0,28.825,11111222 
WAVCIS,ioos:station:WAVCIS:CSI16:2,2009-09-03T08:45:00Z,29.4012,-89.0355,10.0,28.825,11111222 
WAVCIS,ioos:station:WAVCIS:CSI16:2,2009-09-03T09:00:00Z,29.4012,-89.0355,10.0,28.824,11111222 
WAVCIS,ioos:station:WAVCIS:CSI16:2,2009-09-03T09:15:00Z,29.4012,-89.0355,10.0,28.826,11111222 
WAVCIS,ioos:station:WAVCIS:CSI16:2,2009-09-03T09:30:00Z,29.4012,-89.0355,10.0,28.825,11111222 
WAVCIS,ioos:station:WAVCIS:CSI16:2,2009-09-03T09:45:00Z,29.4012,-89.0355,10.0,28.825,11111222 
WAVCIS,ioos:station:WAVCIS:CSI16:2,2009-09-03T10:00:00Z,29.4012,-89.0355,10.0,28.825,11111222 
WAVCIS,ioos:station:WAVCIS:CSI16:2,2009-09-03T10:15:00Z,29.4012,-89.0355,10.0,28.875,11111222 
WAVCIS,ioos:station:WAVCIS:CSI16:2,2009-09-03T10:30:00Z,29.4012,-89.0355,10.0,28.911,11111222 
WAVCIS,ioos:station:WAVCIS:CSI16:2,2009-09-03T10:45:00Z,29.4012,-89.0355,10.0,28.921,11111222 
WAVCIS,ioos:station:WAVCIS:CSI16:2,2009-09-03T11:00:00Z,29.4012,-89.0355,10.0,28.924,11111222 
WAVCIS,ioos:station:WAVCIS:CSI16:2,2009-09-03T11:15:00Z,29.4012,-89.0355,10.0,28.925,11111222 
WAVCIS,ioos:station:WAVCIS:CSI16:2,2009-09-03T11:30:00Z,29.4012,-89.0355,10.0,28.929,11111222 
WAVCIS,ioos:station:WAVCIS:CSI16:2,2009-09-03T11:45:00Z,29.4012,-89.0355,10.0,28.933,11111222 
WAVCIS,ioos:station:WAVCIS:CSI16:2,2009-09-03T12:00:00Z,29.4012,-89.0355,10.0,28.938,11111222 
WAVCIS,ioos:station:WAVCIS:CSI16:2,2009-09-03T12:15:00Z,29.4012,-89.0355,10.0,28.946,11111222 
WAVCIS,ioos:station:WAVCIS:CSI16:2,2009-09-03T12:30:00Z,29.4012,-89.0355,10.0,28.948,11111222 
WAVCIS,ioos:station:WAVCIS:CSI16:2,2009-09-03T12:45:00Z,29.4012,-89.0355,10.0,28.948,11111222 
WAVCIS,ioos:station:WAVCIS:CSI16:2,2009-09-03T13:00:00Z,29.4012,-89.0355,10.0,28.942,11111222 
WAVCIS,ioos:station:WAVCIS:CSI16:2,2009-09-03T13:15:00Z,29.4012,-89.0355,10.0,28.951,11111222 
WAVCIS,ioos:station:WAVCIS:CSI16:2,2009-09-03T13:30:00Z,29.4012,-89.0355,10.0,28.954,11111222 
WAVCIS,ioos:station:WAVCIS:CSI16:2,2009-09-03T13:45:00Z,29.4012,-89.0355,10.0,28.962,11111222 
WAVCIS,ioos:station:WAVCIS:CSI16:2,2009-09-03T14:00:00Z,29.4012,-89.0355,10.0,28.955,11111222 
WAVCIS,ioos:station:WAVCIS:CSI16:2,2009-09-03T14:15:00Z,29.4012,-89.0355,10.0,28.948,11111222 
WAVCIS,ioos:station:WAVCIS:CSI16:2,2009-09-03T14:30:00Z,29.4012,-89.0355,10.0,28.956,11111222 
WAVCIS,ioos:station:WAVCIS:CSI16:2,2009-09-03T14:45:00Z,29.4012,-89.0355,10.0,28.963,11111222 
WAVCIS,ioos:station:WAVCIS:CSI16:2,2009-09-03T15:00:00Z,29.4012,-89.0355,10.0,28.96,11111222 
WAVCIS,ioos:station:WAVCIS:CSI16:2,2009-09-03T15:15:00Z,29.4012,-89.0355,10.0,28.961,11111222 
WAVCIS,ioos:station:WAVCIS:CSI16:2,2009-09-03T15:30:00Z,29.4012,-89.0355,10.0,28.963,11111222 
WAVCIS,ioos:station:WAVCIS:CSI16:2,2009-09-03T15:45:00Z,29.4012,-89.0355,10.0,28.966,11111222 
WAVCIS,ioos:station:WAVCIS:CSI16:2,2009-09-03T16:00:00Z,29.4012,-89.0355,10.0,28.967,11111222 
WAVCIS,ioos:station:WAVCIS:CSI16:2,2009-09-03T16:15:00Z,29.4012,-89.0355,10.0,28.967,11111222 
WAVCIS,ioos:station:WAVCIS:CSI16:2,2009-09-03T16:30:00Z,29.4012,-89.0355,10.0,28.959,11111222 
WAVCIS,ioos:station:WAVCIS:CSI16:2,2009-09-03T16:45:00Z,29.4012,-89.0355,10.0,28.957,11111222 
WAVCIS,ioos:station:WAVCIS:CSI16:2,2009-09-03T17:00:00Z,29.4012,-89.0355,10.0,28.957,11111222 
WAVCIS,ioos:station:WAVCIS:CSI16:2,2009-09-03T17:15:00Z,29.4012,-89.0355,10.0,28.958,11111222 
WAVCIS,ioos:station:WAVCIS:CSI16:2,2009-09-03T17:30:00Z,29.4012,-89.0355,10.0,28.963,11111222 
WAVCIS,ioos:station:WAVCIS:CSI16:2,2009-09-03T17:45:00Z,29.4012,-89.0355,10.0,28.965,11111222 
WAVCIS,ioos:station:WAVCIS:CSI16:2,2009-09-03T18:00:00Z,29.4012,-89.0355,10.0,28.968,11111222 
WAVCIS,ioos:station:WAVCIS:CSI16:2,2009-09-03T18:15:00Z,29.4012,-89.0355,10.0,28.965,11111222 
WAVCIS,ioos:station:WAVCIS:CSI16:2,2009-09-03T18:30:00Z,29.4012,-89.0355,10.0,28.958,11111222 
WAVCIS,ioos:station:WAVCIS:CSI16:2,2009-09-03T18:45:00Z,29.4012,-89.0355,10.0,28.941,11111222 
WAVCIS,ioos:station:WAVCIS:CSI16:2,2009-09-03T19:00:00Z,29.4012,-89.0355,10.0,28.907,11111222 
WAVCIS,ioos:station:WAVCIS:CSI16:2,2009-09-03T19:15:00Z,29.4012,-89.0355,10.0,28.904,11111222 
WAVCIS,ioos:station:WAVCIS:CSI16:2,2009-09-03T19:30:00Z,29.4012,-89.0355,10.0,28.907,11111222 
WAVCIS,ioos:station:WAVCIS:CSI16:2,2009-09-03T19:45:00Z,29.4012,-89.0355,10.0,28.912,11111222 
WAVCIS,ioos:station:WAVCIS:CSI16:2,2009-09-03T20:00:00Z,29.4012,-89.0355,10.0,28.91,11111222 
WAVCIS,ioos:station:WAVCIS:CSI16:2,2009-09-03T20:15:00Z,29.4012,-89.0355,10.0,28.996,11111222 
WAVCIS,ioos:station:WAVCIS:CSI16:2,2009-09-03T20:30:00Z,29.4012,-89.0355,10.0,29.019,11111222 
WAVCIS,ioos:station:WAVCIS:CSI16:2,2009-09-03T20:45:00Z,29.4012,-89.0355,10.0,29.027,11111222 
WAVCIS,ioos:station:WAVCIS:CSI16:2,2009-09-03T21:00:00Z,29.4012,-89.0355,10.0,29.028,11111222 
WAVCIS,ioos:station:WAVCIS:CSI16:2,2009-09-03T21:15:00Z,29.4012,-89.0355,10.0,29.021,11111222 
WAVCIS,ioos:station:WAVCIS:CSI16:2,2009-09-03T21:30:00Z,29.4012,-89.0355,10.0,28.958,11111222 
WAVCIS,ioos:station:WAVCIS:CSI16:2,2009-09-03T21:45:00Z,29.4012,-89.0355,10.0,28.913,11111222 
WAVCIS,ioos:station:WAVCIS:CSI16:2,2009-09-03T22:00:00Z,29.4012,-89.0355,10.0,28.903,11111222 
WAVCIS,ioos:station:WAVCIS:CSI16:2,2009-09-03T22:15:00Z,29.4012,-89.0355,10.0,28.905,11111222 
WAVCIS,ioos:station:WAVCIS:CSI16:2,2009-09-03T22:30:00Z,29.4012,-89.0355,10.0,28.922,11111222 
WAVCIS,ioos:station:WAVCIS:CSI16:2,2009-09-03T22:45:00Z,29.4012,-89.0355,10.0,28.927,11111222 
WAVCIS,ioos:station:WAVCIS:CSI16:2,2009-09-03T23:00:00Z,29.4012,-89.0355,10.0,28.914,11111222 
WAVCIS,ioos:station:WAVCIS:CSI16:2,2009-09-03T23:15:00Z,29.4012,-89.0355,10.0,28.928,11111222 
WAVCIS,ioos:station:WAVCIS:CSI16:2,2009-09-03T23:30:00Z,29.4012,-89.0355,10.0,28.959,11111222 
WAVCIS,ioos:station:WAVCIS:CSI16:2,2009-09-03T23:45:00Z,29.4012,-89.0355,10.0,28.979,11111222 
WAVCIS,ioos:station:WAVCIS:CSI16:2,2009-09-04T00:00:00Z,29.4012,-89.0355,10.0,28.877,11111222 
WAVCIS,ioos:station:WAVCIS:CSI16:2,2009-09-04T00:15:00Z,29.4012,-89.0355,10.0,28.88,11111222 
WAVCIS,ioos:station:WAVCIS:CSI16:2,2009-09-04T00:30:00Z,29.4012,-89.0355,10.0,28.876,11111222 
WAVCIS,ioos:station:WAVCIS:CSI16:2,2009-09-04T00:45:00Z,29.4012,-89.0355,10.0,28.778,11111222 
WAVCIS,ioos:station:WAVCIS:CSI16:2,2009-09-04T01:00:00Z,29.4012,-89.0355,10.0,28.801,11111222 
WAVCIS,ioos:station:WAVCIS:CSI16:2,2009-09-04T01:15:00Z,29.4012,-89.0355,10.0,28.828,11111222 
WAVCIS,ioos:station:WAVCIS:CSI16:2,2009-09-04T01:30:00Z,29.4012,-89.0355,10.0,28.882,11111222 
WAVCIS,ioos:station:WAVCIS:CSI16:2,2009-09-04T01:45:00Z,29.4012,-89.0355,10.0,28.891,11111222 
WAVCIS,ioos:station:WAVCIS:CSI16:2,2009-09-04T02:00:00Z,29.4012,-89.0355,10.0,28.879,11111222 
WAVCIS,ioos:station:WAVCIS:CSI16:2,2009-09-04T02:15:00Z,29.4012,-89.0355,10.0,28.894,11111222 
WAVCIS,ioos:station:WAVCIS:CSI16:2,2009-09-04T02:30:00Z,29.4012,-89.0355,10.0,28.893,11111222 
WAVCIS,ioos:station:WAVCIS:CSI16:2,2009-09-04T02:45:00Z,29.4012,-89.0355,10.0,28.894,11111222 
WAVCIS,ioos:station:WAVCIS:CSI16:2,2009-09-04T03:00:00Z,29.4012,-89.0355,10.0,28.899,11111222 
WAVCIS,ioos:station:WAVCIS:CSI16:2,2009-09-04T03:15:00Z,29.4012,-89.0355,10.0,28.887,11111222 
WAVCIS,ioos:station:WAVCIS:CSI16:2,2009-09-04T03:30:00Z,29.4012,-89.0355,10.0,28.873,11111222 
WAVCIS,ioos:station:WAVCIS:CSI16:2,2009-09-04T03:45:00Z,29.4012,-89.0355,10.0,28.878,11111222 
WAVCIS,ioos:station:WAVCIS:CSI16:2,2009-09-04T04:00:00Z,29.4012,-89.0355,10.0,28.854,11111222 
WAVCIS,ioos:station:WAVCIS:CSI16:2,2009-09-04T04:15:00Z,29.4012,-89.0355,10.0,28.831,11111222 
WAVCIS,ioos:station:WAVCIS:CSI16:2,2009-09-04T04:30:00Z,29.4012,-89.0355,10.0,28.819,11111222 
WAVCIS,ioos:station:WAVCIS:CSI16:2,2009-09-04T04:45:00Z,29.4012,-89.0355,10.0,28.818,11111222 
WAVCIS,ioos:station:WAVCIS:CSI16:2,2009-09-04T05:00:00Z,29.4012,-89.0355,10.0,28.822,11111222 
WAVCIS,ioos:station:WAVCIS:CSI16:2,2009-09-04T05:15:00Z,29.4012,-89.0355,10.0,28.825,11111222 
WAVCIS,ioos:station:WAVCIS:CSI16:2,2009-09-04T05:30:00Z,29.4012,-89.0355,10.0,28.825,11111222 
WAVCIS,ioos:station:WAVCIS:CSI16:2,2009-09-04T05:45:00Z,29.4012,-89.0355,10.0,28.816,11111222 
WAVCIS,ioos:station:WAVCIS:CSI16:2,2009-09-04T06:00:00Z,29.4012,-89.0355,10.0,28.803,11111222 
WAVCIS,ioos:station:WAVCIS:CSI16:2,2009-09-04T06:15:00Z,29.4012,-89.0355,10.0,28.802,11111222 
WAVCIS,ioos:station:WAVCIS:CSI16:2,2009-09-04T06:30:00Z,29.4012,-89.0355,10.0,28.792,11111222 
WAVCIS,ioos:station:WAVCIS:CSI16:2,2009-09-04T06:45:00Z,29.4012,-89.0355,10.0,28.782,11111222 
WAVCIS,ioos:station:WAVCIS:CSI16:2,2009-09-04T07:00:00Z,29.4012,-89.0355,10.0,28.768,11111222 
WAVCIS,ioos:station:WAVCIS:CSI16:2,2009-09-04T07:15:00Z,29.4012,-89.0355,10.0,28.745,11111222 
WAVCIS,ioos:station:WAVCIS:CSI16:2,2009-09-04T07:30:00Z,29.4012,-89.0355,10.0,28.746,11111222 
WAVCIS,ioos:station:WAVCIS:CSI16:2,2009-09-04T07:45:00Z,29.4012,-89.0355,10.0,28.745,11111222 
WAVCIS,ioos:station:WAVCIS:CSI16:2,2009-09-04T08:00:00Z,29.4012,-89.0355,10.0,28.746,11111222 
WAVCIS,ioos:station:WAVCIS:CSI16:2,2009-09-04T08:15:00Z,29.4012,-89.0355,10.0,28.755,11111222 
WAVCIS,ioos:station:WAVCIS:CSI16:2,2009-09-04T08:30:00Z,29.4012,-89.0355,10.0,28.76,11111222 
WAVCIS,ioos:station:WAVCIS:CSI16:2,2009-09-04T08:45:00Z,29.4012,-89.0355,10.0,28.753,11111222 
WAVCIS,ioos:station:WAVCIS:CSI16:2,2009-09-04T09:00:00Z,29.4012,-89.0355,10.0,28.749,11111222 
WAVCIS,ioos:station:WAVCIS:CSI16:2,2009-09-04T09:15:00Z,29.4012,-89.0355,10.0,28.742,11111222 
WAVCIS,ioos:station:WAVCIS:CSI16:2,2009-09-04T09:30:00Z,29.4012,-89.0355,10.0,28.737,11111222 
WAVCIS,ioos:station:WAVCIS:CSI16:2,2009-09-04T09:45:00Z,29.4012,-89.0355,10.0,28.737,11111222 
WAVCIS,ioos:station:WAVCIS:CSI16:2,2009-09-04T10:00:00Z,29.4012,-89.0355,10.0,28.738,11111222 
WAVCIS,ioos:station:WAVCIS:CSI16:2,2009-09-04T10:15:00Z,29.4012,-89.0355,10.0,28.728,11111222 
WAVCIS,ioos:station:WAVCIS:CSI16:2,2009-09-04T10:30:00Z,29.4012,-89.0355,10.0,28.721,11111222 
WAVCIS,ioos:station:WAVCIS:CSI16:2,2009-09-04T10:45:00Z,29.4012,-89.0355,10.0,28.724,11111222 
WAVCIS,ioos:station:WAVCIS:CSI16:2,2009-09-04T11:00:00Z,29.4012,-89.0355,10.0,28.728,11111222 
WAVCIS,ioos:station:WAVCIS:CSI16:2,2009-09-04T11:15:00Z,29.4012,-89.0355,10.0,28.727,11111222 
WAVCIS,ioos:station:WAVCIS:CSI16:2,2009-09-04T11:30:00Z,29.4012,-89.0355,10.0,28.728,11111222 